FENGYUN 1C DEB, 36236

Orbit data source: Space-Track

FENGYUN 1C DEB, 36236 is space debris in SSO originally from a launch on Mon, 10 May 1999 UTC launched from the Taiyaun Space Center, China (TSC). Fengyun 1C debris stems from the Chinese weather satellite Fengyun-1C, which was intentionally destroyed by a Chinese anti-satellite missile in 2007. This event dramatically increased the amount of space debris, with thousands of trackable fragments posing hazards to satellites and human spaceflight. The Fengyun 1C debris cloud has become a focal point in discussions about space sustainability and the need for international regulations to prevent the creation of new debris.

Loading next visibility...
Identifier
36236, 1999-025DVM
Orbit
SSO
Country
Flag of CNCN / PRC
Related business
Manufacturer
Unknown
Mission
Spacecraft
Bus & Motor
Unknown
Mass
Unknown
Launch date (UTC)
1999-05-10 (27 years ago)
Launch vehicle
Unknown
Launch site
Taiyaun Space Center, China (TSC)
Object type
Payload
Rocket body
Debris
Shape & HBR
Unknown shape, 0.1 m
Radar Cross Section
Small (<0.1 m²)

Expand to show TLE details & history
Last TLE update: 2 weeks ago

TLE from 2 weeks ago
0 FENGYUN 1C DEB
1 36236U 99025DVM 26212.81289141  .00000218  00000-0  21883-3 0  9998
2 36236  98.8230 243.7891 0150907  95.0645 266.7754 13.82113096629397
Epoch: 2026-07-31T19:30Z
TLE epoch observation values (Epoch: 2026-07-31T19:30:33.817Z)
Latitude
-0.00005°
Longitude
1.71453°
Altitude
967.152 km
Speed
7.364 km/s
True Right ascension
16h 15m 09s
True Declination
0° 00' 00"
Sunlit
Object was in daylight at epoch
Visualization orbit readout
Latitude
Unknown
Longitude
Unknown
Altitude
Unknown
Speed
Unknown
Apparent Right ascension
Unknown
Apparent Declination
Unknown
Sunlit
N/A
Visualization observer readout
Local Sidereal Time
16:24:46
Azimuth
Unknown
Elevation
Unknown
Doppler factor
Unknown
Orbital elements
Apogee altitude
1,064.257 km
Perigee altitude
842.974 km
Semi-major axis
7,331.752 km
Eccentricity
0.01509
Inclination
98.823°
RAAN
243.7891°
Arg. of periapsis
95.0645°
True anomaly
265.05096°
Mean anomaly
266.7754°
Eccentric anomaly
265.91297°
Mean motion
3.45726 °/min
Orbital period
104.13 mins
BSTAR
0.00021883
Loading maneuver chart data...
Computing Atmospheric mass density...

Documentation

Showing up to 5 results
|